Time,TemperatureF,DewpointF,PressureIn,WindDirection,WindDirectionDegrees,WindSpeedMPH,WindSpeedGustMPH,Humidity,HourlyPrecipIn,Conditions,Clouds,dailyrainin,SoftwareType,DateUTC
2013-01-21 00:02:00,13.0,8.0,-100.00,East,85,1.0,6.0,81,-99.99,,,-99.99,,2013-01-21 07:02:00,
2013-01-21 00:11:00,13.0,8.0,-100.00,East,85,1.0,6.0,81,-99.99,,,-99.99,,2013-01-21 07:11:00,
2013-01-21 00:22:00,13.0,8.0,-100.00,East,85,1.0,6.0,81,-99.99,,,-99.99,,2013-01-21 07:22:00,
2013-01-21 00:32:00,13.0,8.0,-100.00,ESE,115,0.0,6.0,82,-99.99,,,-99.99,,2013-01-21 07:32:00,
2013-01-21 00:42:00,12.0,8.0,-100.00,NE,45,2.0,7.0,82,-99.99,,,-99.99,,2013-01-21 07:42:00,
2013-01-21 00:52:00,12.0,8.0,-100.00,NE,45,2.0,7.0,82,-99.99,,,-99.99,,2013-01-21 07:52:00,
2013-01-21 01:02:00,11.0,7.0,-100.00,North,355,0.0,4.0,83,-99.99,,,-99.99,,2013-01-21 08:02:00,
2013-01-21 01:12:00,11.0,7.0,-100.00,NE,45,1.0,6.0,83,-99.99,,,-99.99,,2013-01-21 08:12:00,
2013-01-21 01:22:00,11.0,7.0,-100.00,ESE,110,1.0,6.0,83,-99.99,,,-99.99,,2013-01-21 08:22:00,
2013-01-21 01:32:00,11.0,7.0,-100.00,NNW,335,1.0,6.0,84,-99.99,,,-99.99,,2013-01-21 08:32:00,
2013-01-21 01:42:00,11.0,8.0,-100.00,NNE,30,1.0,6.0,84,-99.99,,,-99.99,,2013-01-21 08:42:00,
2013-01-21 01:52:00,11.0,8.0,-100.00,NNE,30,1.0,6.0,84,-99.99,,,-99.99,,2013-01-21 08:52:00,
2013-01-21 02:02:00,10.0,7.0,-100.00,NE,50,1.0,5.0,84,-99.99,,,-99.99,,2013-01-21 09:02:00,
2013-01-21 02:11:00,10.0,7.0,-100.00,NE,50,1.0,5.0,84,-99.99,,,-99.99,,2013-01-21 09:11:00,
2013-01-21 02:22:00,10.0,7.0,-100.00,NE,50,1.0,5.0,84,-99.99,,,-99.99,,2013-01-21 09:22:00,
2013-01-21 02:32:00,10.0,6.0,-100.00,NNE,25,2.0,6.0,85,-99.99,,,-99.99,,2013-01-21 09:32:00,
2013-01-21 02:42:00,10.0,6.0,-100.00,NNE,25,2.0,6.0,85,-99.99,,,-99.99,,2013-01-21 09:42:00,
2013-01-21 02:52:00,10.0,6.0,-100.00,NNE,25,1.0,6.0,86,-99.99,,,-99.99,,2013-01-21 09:52:00,
2013-01-21 03:02:00,10.0,7.0,-100.00,NE,55,1.0,5.0,86,-99.99,,,-99.99,,2013-01-21 10:02:00,
2013-01-21 03:12:00,10.0,7.0,-100.00,NE,55,1.0,5.0,86,-99.99,,,-99.99,,2013-01-21 10:12:00,
2013-01-21 03:22:00,9.0,6.0,-100.00,ENE,75,1.0,4.0,86,-99.99,,,-99.99,,2013-01-21 10:22:00,
2013-01-21 03:32:00,9.0,6.0,-100.00,North,0,1.0,6.0,86,-99.99,,,-99.99,,2013-01-21 10:32:00,
2013-01-21 03:42:00,8.0,5.0,-100.00,NNE,15,1.0,4.0,86,-99.99,,,-99.99,,2013-01-21 10:42:00,
2013-01-21 03:52:00,8.0,5.0,-100.00,NNE,15,1.0,4.0,86,-99.99,,,-99.99,,2013-01-21 10:52:00,
2013-01-21 04:02:00,8.0,5.0,-100.00,East,80,0.0,4.0,86,-99.99,,,-99.99,,2013-01-21 11:02:00,
2013-01-21 04:12:00,7.0,4.0,-100.00,NNE,25,0.0,6.0,87,-99.99,,,-99.99,,2013-01-21 11:12:00,
2013-01-21 04:22:00,7.0,4.0,-100.00,NNE,25,0.0,6.0,87,-99.99,,,-99.99,,2013-01-21 11:22:00,
2013-01-21 04:32:00,8.0,5.0,-100.00,East,80,0.0,4.0,87,-99.99,,,-99.99,,2013-01-21 11:32:00,
2013-01-21 04:42:00,7.0,4.0,-100.00,SW,220,0.0,5.0,87,-99.99,,,-99.99,,2013-01-21 11:42:00,
2013-01-21 04:52:00,7.0,4.0,-100.00,SW,220,0.0,5.0,87,-99.99,,,-99.99,,2013-01-21 11:52:00,
2013-01-21 05:02:00,7.0,4.0,-100.00,ENE,65,1.0,6.0,88,-99.99,,,-99.99,,2013-01-21 12:02:00,
2013-01-21 05:12:00,7.0,4.0,-100.00,ENE,60,0.0,8.0,88,-99.99,,,-99.99,,2013-01-21 12:12:00,
2013-01-21 05:22:00,6.0,4.0,-100.00,WNW,295,1.0,5.0,88,-99.99,,,-99.99,,2013-01-21 12:22:00,
2013-01-21 05:32:00,6.0,4.0,-100.00,SE,140,1.0,6.0,88,-99.99,,,-99.99,,2013-01-21 12:32:00,
2013-01-21 05:42:00,6.0,4.0,-100.00,SE,140,1.0,6.0,88,-99.99,,,-99.99,,2013-01-21 12:42:00,
2013-01-21 05:52:00,6.0,3.0,-100.00,ESE,105,1.0,6.0,88,-99.99,,,-99.99,,2013-01-21 12:52:00,
2013-01-21 06:02:00,7.0,4.0,-100.00,East,100,0.0,4.0,88,-99.99,,,-99.99,,2013-01-21 13:02:00,
2013-01-21 06:12:00,7.0,4.0,-100.00,East,90,1.0,6.0,88,-99.99,,,-99.99,,2013-01-21 13:12:00,
2013-01-21 06:22:00,6.0,3.0,-100.00,NE,50,1.0,7.0,88,-99.99,,,-99.99,,2013-01-21 13:22:00,
2013-01-21 06:32:00,6.0,3.0,-100.00,NE,35,2.0,6.0,88,-99.99,,,-99.99,,2013-01-21 13:32:00,
2013-01-21 06:42:00,6.0,3.0,-100.00,NNE,25,0.0,6.0,88,-99.99,,,-99.99,,2013-01-21 13:42:00,
2013-01-21 06:53:00,6.0,3.0,-100.00,NNE,25,0.0,6.0,88,-99.99,,,-99.99,,2013-01-21 13:53:00,
2013-01-21 07:02:00,6.0,3.0,-100.00,ENE,70,4.0,6.0,88,-99.99,,,-99.99,,2013-01-21 14:02:00,
2013-01-21 07:12:00,5.0,2.0,-100.00,North,0,1.0,7.0,88,-99.99,,,-99.99,,2013-01-21 14:12:00,
2013-01-21 07:22:00,5.0,2.0,-100.00,ENE,70,1.0,7.0,88,-99.99,,,-99.99,,2013-01-21 14:22:00,
2013-01-21 07:32:00,6.0,3.0,-100.00,ENE,65,1.0,5.0,88,-99.99,,,-99.99,,2013-01-21 14:32:00,
2013-01-21 07:43:00,5.0,3.0,-100.00,NE,35,2.0,6.0,88,-99.99,,,-99.99,,2013-01-21 14:43:00,
2013-01-21 07:52:00,5.0,3.0,-100.00,NE,35,2.0,6.0,88,-99.99,,,-99.99,,2013-01-21 14:52:00,
2013-01-21 08:03:00,5.0,2.0,-100.00,North,0,0.0,6.0,88,-99.99,,,-99.99,,2013-01-21 15:03:00,
2013-01-21 08:12:00,5.0,2.0,-100.00,NNE,20,1.0,4.0,88,-99.99,,,-99.99,,2013-01-21 15:12:00,
2013-01-21 08:22:00,5.0,2.0,-100.00,East,95,0.0,6.0,88,-99.99,,,-99.99,,2013-01-21 15:22:00,
2013-01-21 08:33:00,5.0,2.0,-100.00,NE,55,1.0,7.0,88,-99.99,,,-99.99,,2013-01-21 15:33:00,
2013-01-21 08:42:00,5.0,2.0,-100.00,NE,55,1.0,4.0,88,-99.99,,,-99.99,,2013-01-21 15:42:00,
2013-01-21 08:52:00,5.0,2.0,-100.00,NE,55,1.0,4.0,88,-99.99,,,-99.99,,2013-01-21 15:52:00,
2013-01-21 09:03:00,5.0,3.0,-100.00,NE,55,1.0,8.0,88,-99.99,,,-99.99,,2013-01-21 16:03:00,
2013-01-21 09:12:00,5.0,2.0,-100.00,North,0,1.0,5.0,88,-99.99,,,-99.99,,2013-01-21 16:12:00,
2013-01-21 09:22:00,5.0,2.0,-100.00,North,355,0.0,4.0,88,-99.99,,,-99.99,,2013-01-21 16:22:00,
2013-01-21 09:32:00,5.0,2.0,-100.00,North,355,0.0,4.0,88,-99.99,,,-99.99,,2013-01-21 16:32:00,
2013-01-21 09:43:00,6.0,3.0,-100.00,ENE,75,0.0,4.0,88,-99.99,,,-99.99,,2013-01-21 16:43:00,
2013-01-21 09:52:00,7.0,4.0,-100.00,NE,45,1.0,4.0,88,-99.99,,,-99.99,,2013-01-21 16:52:00,
2013-01-21 10:02:00,7.0,5.0,-100.00,East,85,1.0,6.0,88,-99.99,,,-99.99,,2013-01-21 17:02:00,
2013-01-21 10:12:00,8.0,5.0,-100.00,NNE,15,1.0,5.0,88,-99.99,,,-99.99,,2013-01-21 17:12:00,
2013-01-21 10:22:00,9.0,6.0,-100.00,ENE,60,1.0,6.0,87,-99.99,,,-99.99,,2013-01-21 17:22:00,
2013-01-21 10:33:00,9.0,6.0,-100.00,East,95,2.0,6.0,87,-99.99,,,-99.99,,2013-01-21 17:33:00,
2013-01-21 10:42:00,11.0,8.0,-100.00,SE,135,3.0,9.0,87,-99.99,,,-99.99,,2013-01-21 17:42:00,
2013-01-21 10:52:00,12.0,9.0,-100.00,North,350,1.0,5.0,86,-99.99,,,-99.99,,2013-01-21 17:52:00,
2013-01-21 11:02:00,12.0,8.0,-100.00,NE,35,1.0,4.0,86,-99.99,,,-99.99,,2013-01-21 18:02:00,
2013-01-21 11:11:00,12.0,8.0,-100.00,NE,35,1.0,4.0,86,-99.99,,,-99.99,,2013-01-21 18:11:00,
2013-01-21 11:22:00,14.0,10.0,-100.00,SSW,210,1.0,2.0,84,-99.99,,,-99.99,,2013-01-21 18:22:00,
2013-01-21 11:33:00,14.0,10.0,-100.00,SSE,165,0.0,4.0,84,-99.99,,,-99.99,,2013-01-21 18:33:00,
2013-01-21 11:42:00,15.0,11.0,-100.00,East,85,2.0,5.0,82,-99.99,,,-99.99,,2013-01-21 18:42:00,
2013-01-21 11:53:00,15.0,11.0,-100.00,East,85,2.0,5.0,82,-99.99,,,-99.99,,2013-01-21 18:53:00,
2013-01-21 12:02:00,18.0,13.0,-100.00,NE,55,2.0,6.0,80,-99.99,,,-99.99,,2013-01-21 19:02:00,
2013-01-21 12:12:00,18.0,13.0,-100.00,NE,55,2.0,6.0,80,-99.99,,,-99.99,,2013-01-21 19:12:00,
2013-01-21 12:22:00,21.0,13.0,-100.00,ENE,70,4.0,9.0,71,-99.99,,,-99.99,,2013-01-21 19:22:00,
2013-01-21 12:32:00,23.0,13.0,-100.00,East,80,4.0,7.0,65,-99.99,,,-99.99,,2013-01-21 19:32:00,
2013-01-21 12:42:00,24.0,13.0,-100.00,ENE,60,5.0,9.0,61,-99.99,,,-99.99,,2013-01-21 19:42:00,
2013-01-21 12:53:00,24.0,13.0,-100.00,ENE,60,5.0,9.0,61,-99.99,,,-99.99,,2013-01-21 19:53:00,
2013-01-21 13:02:00,27.0,14.0,-100.00,East,95,4.0,7.0,57,-99.99,,,-99.99,,2013-01-21 20:02:00,
2013-01-21 13:12:00,27.0,13.0,-100.00,East,90,3.0,6.0,54,-99.99,,,-99.99,,2013-01-21 20:12:00,
2013-01-21 13:22:00,27.0,13.0,-100.00,East,90,3.0,6.0,54,-99.99,,,-99.99,,2013-01-21 20:22:00,
2013-01-21 13:32:00,27.0,13.0,-100.00,ENE,75,2.0,7.0,53,-99.99,,,-99.99,,2013-01-21 20:32:00,
2013-01-21 13:42:00,29.0,13.0,-100.00,East,95,2.0,4.0,51,-99.99,,,-99.99,,2013-01-21 20:42:00,
2013-01-21 13:52:00,30.0,13.0,-100.00,ESE,110,2.0,4.0,50,-99.99,,,-99.99,,2013-01-21 20:52:00,
2013-01-21 14:02:00,30.0,13.0,-100.00,East,90,4.0,5.0,50,-99.99,,,-99.99,,2013-01-21 21:02:00,
2013-01-21 14:12:00,30.0,13.0,-100.00,East,90,4.0,5.0,50,-99.99,,,-99.99,,2013-01-21 21:12:00,
2013-01-21 14:22:00,31.0,13.0,-100.00,SE,130,1.0,2.0,48,-99.99,,,-99.99,,2013-01-21 21:22:00,
2013-01-21 14:32:00,32.0,14.0,-100.00,ESE,110,0.0,1.0,46,-99.99,,,-99.99,,2013-01-21 21:32:00,
2013-01-21 14:42:00,33.0,14.0,-100.00,SSE,150,0.0,1.0,45,-99.99,,,-99.99,,2013-01-21 21:42:00,
2013-01-21 14:53:00,33.0,15.0,-100.00,SSE,155,0.0,1.0,45,-99.99,,,-99.99,,2013-01-21 21:53:00,
2013-01-21 15:02:00,33.0,15.0,-100.00,SE,125,0.0,1.0,45,-99.99,,,-99.99,,2013-01-21 22:02:00,
2013-01-21 15:12:00,33.0,15.0,-100.00,SE,125,0.0,1.0,45,-99.99,,,-99.99,,2013-01-21 22:12:00,
2013-01-21 15:22:00,33.0,14.0,-100.00,SSW,195,0.0,1.0,45,-99.99,,,-99.99,,2013-01-21 22:22:00,
2013-01-21 15:32:00,33.0,14.0,-100.00,SSW,205,0.0,2.0,45,-99.99,,,-99.99,,2013-01-21 22:32:00,
2013-01-21 15:42:00,33.0,14.0,-100.00,SSW,210,1.0,2.0,44,-99.99,,,-99.99,,2013-01-21 22:42:00,
2013-01-21 15:53:00,33.0,14.0,-100.00,SSE,160,0.0,2.0,44,-99.99,,,-99.99,,2013-01-21 22:53:00,
2013-01-21 16:02:00,33.0,14.0,-100.00,SE,135,0.0,1.0,45,-99.99,,,-99.99,,2013-01-21 23:02:00,
2013-01-21 16:12:00,31.0,13.0,-100.00,SW,225,3.0,7.0,47,-99.99,,,-99.99,,2013-01-21 23:12:00,
2013-01-21 16:22:00,31.0,13.0,-100.00,SW,225,3.0,7.0,47,-99.99,,,-99.99,,2013-01-21 23:22:00,
2013-01-21 16:33:00,31.0,15.0,-100.00,South,190,0.0,6.0,49,-99.99,,,-99.99,,2013-01-21 23:33:00,
2013-01-21 16:42:00,30.0,14.0,-100.00,SW,225,1.0,4.0,50,-99.99,,,-99.99,,2013-01-21 23:42:00,
2013-01-21 16:53:00,30.0,14.0,-100.00,SW,225,1.0,4.0,50,-99.99,,,-99.99,,2013-01-21 23:53:00,
2013-01-21 17:02:00,28.0,14.0,-100.00,SW,225,2.0,2.0,53,-99.99,,,-99.99,,2013-01-22 00:02:00,
2013-01-21 17:11:00,28.0,14.0,-100.00,South,185,0.0,3.0,56,-99.99,,,-99.99,,2013-01-22 00:11:00,
2013-01-21 17:22:00,28.0,15.0,-100.00,WNW,285,1.0,2.0,57,-99.99,,,-99.99,,2013-01-22 00:22:00,
2013-01-21 17:32:00,27.0,14.0,-100.00,East,85,0.0,2.0,58,-99.99,,,-99.99,,2013-01-22 00:32:00,
2013-01-21 17:42:00,26.0,14.0,-100.00,WSW,240,0.0,0.0,59,-99.99,,,-99.99,,2013-01-22 00:42:00,
2013-01-21 17:52:00,25.0,14.0,-100.00,NE,50,0.0,1.0,61,-99.99,,,-99.99,,2013-01-22 00:52:00,
2013-01-21 18:02:00,24.0,13.0,-100.00,NE,55,0.0,2.0,62,-99.99,,,-99.99,,2013-01-22 01:02:00,
2013-01-21 18:12:00,24.0,13.0,-100.00,ENE,75,0.0,1.0,64,-99.99,,,-99.99,,2013-01-22 01:12:00,
2013-01-21 18:22:00,24.0,13.0,-100.00,ENE,75,0.0,1.0,64,-99.99,,,-99.99,,2013-01-22 01:22:00,
2013-01-21 18:32:00,23.0,13.0,-100.00,ENE,75,0.0,1.0,65,-99.99,,,-99.99,,2013-01-22 01:32:00,
2013-01-21 18:42:00,22.0,13.0,-100.00,SE,130,0.0,0.0,68,-99.99,,,-99.99,,2013-01-22 01:42:00,
2013-01-21 18:52:00,22.0,13.0,-100.00,ENE,65,0.0,1.0,69,-99.99,,,-99.99,,2013-01-22 01:52:00,
2013-01-21 19:02:00,22.0,13.0,-100.00,ENE,65,0.0,2.0,70,-99.99,,,-99.99,,2013-01-22 02:02:00,
2013-01-21 19:12:00,21.0,13.0,-100.00,ENE,70,1.0,2.0,72,-99.99,,,-99.99,,2013-01-22 02:12:00,
2013-01-21 19:22:00,20.0,13.0,-100.00,West,280,0.0,1.0,73,-99.99,,,-99.99,,2013-01-22 02:22:00,
2013-01-21 19:32:00,20.0,13.0,-100.00,NE,40,2.0,3.0,74,-99.99,,,-99.99,,2013-01-22 02:32:00,
2013-01-21 19:42:00,20.0,13.0,-100.00,NE,55,0.0,1.0,75,-99.99,,,-99.99,,2013-01-22 02:42:00,
2013-01-21 19:52:00,20.0,13.0,-100.00,NE,55,0.0,1.0,75,-99.99,,,-99.99,,2013-01-22 02:52:00,
2013-01-21 20:02:00,19.0,13.0,-100.00,ENE,75,0.0,2.0,76,-99.99,,,-99.99,,2013-01-22 03:02:00,
2013-01-21 20:12:00,19.0,13.0,-100.00,ENE,75,0.0,2.0,76,-99.99,,,-99.99,,2013-01-22 03:12:00,
2013-01-21 20:22:00,18.0,13.0,-100.00,NE,50,0.0,2.0,77,-99.99,,,-99.99,,2013-01-22 03:22:00,
2013-01-21 20:32:00,18.0,13.0,-100.00,ENE,60,1.0,2.0,78,-99.99,,,-99.99,,2013-01-22 03:32:00,
2013-01-21 20:42:00,18.0,13.0,-100.00,ENE,60,1.0,2.0,78,-99.99,,,-99.99,,2013-01-22 03:42:00,
2013-01-21 20:52:00,17.0,12.0,-100.00,East,85,0.0,1.0,79,-99.99,,,-99.99,,2013-01-22 03:52:00,
2013-01-21 21:02:00,17.0,12.0,-100.00,ENE,70,0.0,0.0,80,-99.99,,,-99.99,,2013-01-22 04:02:00,
2013-01-21 21:11:00,17.0,12.0,-100.00,ENE,70,0.0,0.0,80,-99.99,,,-99.99,,2013-01-22 04:11:00,
2013-01-21 21:22:00,17.0,12.0,-100.00,ENE,70,0.0,2.0,80,-99.99,,,-99.99,,2013-01-22 04:22:00,
2013-01-21 21:32:00,16.0,11.0,-100.00,ENE,75,0.0,2.0,81,-99.99,,,-99.99,,2013-01-22 04:32:00,
2013-01-21 21:42:00,16.0,11.0,-100.00,ENE,75,0.0,2.0,81,-99.99,,,-99.99,,2013-01-22 04:42:00,
2013-01-21 21:52:00,16.0,11.0,-100.00,ENE,75,0.0,2.0,81,-99.99,,,-99.99,,2013-01-22 04:52:00,
2013-01-21 22:03:00,15.0,11.0,-100.00,ESE,105,0.0,1.0,82,-99.99,,,-99.99,,2013-01-22 05:03:00,
2013-01-21 22:12:00,15.0,11.0,-100.00,ENE,70,0.0,4.0,82,-99.99,,,-99.99,,2013-01-22 05:12:00,
2013-01-21 22:22:00,15.0,11.0,-100.00,NE,35,1.0,6.0,82,-99.99,,,-99.99,,2013-01-22 05:22:00,
2013-01-21 22:42:00,15.0,11.0,-100.00,NE,55,1.0,3.0,82,-99.99,,,-99.99,,2013-01-22 05:42:00,
2013-01-21 22:52:00,15.0,10.0,-100.00,ENE,70,1.0,4.0,83,-99.99,,,-99.99,,2013-01-22 05:52:00,
2013-01-21 23:02:00,15.0,11.0,-100.00,ENE,60,1.0,6.0,83,-99.99,,,-99.99,,2013-01-22 06:02:00,
2013-01-21 23:11:00,14.0,10.0,-100.00,East,100,0.0,2.0,83,-99.99,,,-99.99,,2013-01-22 06:11:00,
2013-01-21 23:22:00,14.0,10.0,-100.00,East,100,0.0,2.0,83,-99.99,,,-99.99,,2013-01-22 06:22:00,
2013-01-21 23:32:00,14.0,10.0,-100.00,East,85,0.0,1.0,84,-99.99,,,-99.99,,2013-01-22 06:32:00,
2013-01-21 23:42:00,13.0,10.0,-100.00,East,85,0.0,2.0,84,-99.99,,,-99.99,,2013-01-22 06:42:00,
2013-01-21 23:52:00,13.0,9.0,-100.00,ENE,65,0.0,1.0,84,-99.99,,,-99.99,,2013-01-22 06:52:00,